Regional Weather Roundup
Issued by NWS New Orleans/Baton Rouge, LA

Home | Current Version | Previous Version | Text Only | Print | Product List | Glossary On
Versions: 1 2 3 4 5 6 7 8 9 10 11 12 13 14 15 16 17 18 19 20 21 22 23 24 25 26 27 28 29 30 31 32 33 34 35 36 37 38 39 40 41 42 43 44 45 46 47 48 49 50
548
ASUS44 KLIX 242205
RWRLIX
NEW ORLEANS REGIONAL WEATHER ROUNDUP
NATIONAL WEATHER SERVICE NEW ORLEANS LA
500 PM CDT THU JUL 24 2014

NOTE: "FAIR" INDICATES FEW OR NO CLOUDS BELOW 12,000 FEET WITH NO
      SIGNIFICANT WEATHER AND/OR OBSTRUCTIONS TO VISIBILITY.
      SKY/WX - SKY CONDITION AND SIGNIFICANT WEATHER.
      TMP - AIR TEMPERATURE.     DP    - DEWPOINT TEMPERATURE.
      RH  - RELATIVE HUMIDITY.   PRES  - PRESSURE.
      HI  - HEAT INDEX.          WCI   - WIND CHILL INDEX.

*  THESE STATIONS ARE NOT NWS OR FAA STATIONS AND ARE NOT UNDER
   NWS QUALITY CONTROL.

LAZ038-040-048-061>063-065>067-069-242300-
SOUTHEAST LOUISIANA

CITY           SKY/WX    TMP DP  RH WIND       PRES   REMARKS
N.O. AUDUBON     N/A     78  76  93 MISG        N/A
N.O. INTL ARPT PTSUNNY   88  75  65 S6        29.94F HX  97
N.O. LAKEFRONT MOSUNNY   87  70  56 CALM      29.95F
N.O. DOWNTOWN*   N/A     84  72  65 S5        29.95F
SLIDELL        PTSUNNY   86  75  69 CALM      29.93F HX  95
BATON ROUGE    SUNNY     82  73  74 CALM      29.95F
BOOTHVILLE     SUNNY     84  74  71 SW13      29.96F
BELLE CHASSE   PTSUNNY   84  73  69 CALM      29.94F
BOGALUSA*        N/A     92  69  47 CALM      29.95F HX  96
GALLIANO*      NOT AVBL
NEW ROADS*       N/A     88  73  61 NW5       29.95F HX  96
GONZALES*      MOCLDY    91  72  53 CALM      29.93F HX  97
HAMMOND*       SUNNY     93  66  40 NE5       29.95F HX  96
HOUMA*         MOSUNNY   90  68  48 W3        29.95S
PORT FOURCHON* CLEAR     86  75  70 SW12      29.97F HX  95

$$

MSZ070-080>082-242300-
SOUTHERN MISSISSIPPI

CITY           SKY/WX    TMP DP  RH WIND       PRES   REMARKS
MCCOMB         CLOUDY    85  74  69 NW9       29.96S
GULFPORT       MOSUNNY   88  73  61 S8        29.94F HX  95
BILOXI         SUNNY     85  73  67 VRB7      29.95F
PASCAGOULA     SUNNY     85  73  67 SW7       29.95F
STENNIS ARPT*  MOSUNNY  N/A N/A N/A SE5       29.94F

$$

COASTAL OBSERVATIONS
LAKE AND NEARSHORE STATIONS

STATION/POSITION TIME  TEMP    WIND        PRES    WAVE
                       AIR SEA DIR/SP/G            HT/PER
                 (UTC) (F)     (DEG/KT/KT) (MB)    (FT/S)
PASCAGOULA       2200   85     190/  9/ 12 1014.0
WAVELAND YACHT   2200   83     200/  9/ 13 1013.5
GRAND ISLE       2200   85 84  250/  7/  9 1014.8
SOUTHWEST PASS   2200   84 85  230/  7/  8 1015.0
NEW CANAL        2200   86 85   CALM  /  3 1014.4
SHELL BEACH      2200   81 80  250/  5/  7 1014.0

OFFSHORE STATIONS

STATION/POSITION TIME  TEMP    WIND        PRES    WAVE
                       AIR SEA DIR/SP/G            HT/PER
                 (UTC) (F)     (DEG/KT/KT) (MB)    (FT/S)
64 S DAUPHIN ISL 2111   84 86  220/  8/ 10 1014.8

$$




USA.gov is the U.S. government's official web portal to all federal, state and local government web resources and services.